Tracking 19574 objects as of 16-Feb-2019
HD Live streaming from Space Station
objects crossing your sky now

THORAD DELTA 1 DEB

Track THORAD DELTA 1 DEB now!
10-day predictions


NORAD ID: 42620
Int'l Code: 1974-089GM
Perigee: 1,470.1 km
Apogee: 1,704.4 km
Inclination: 101.1 °
Period: 117.8 minutes
Semi major axis: 7958 km
RCS: Unknown
Launch date: November 15, 1974
Source: United States (US)
Launch site: AIR FORCE WESTERN TEST RANGE (AFWTR)

Note: This is SATELLITE DEBRIS
aabbcc
Your satellite tracking list
Your tracking list is empty




NASA's NSSDC Master Catalog

Two Line Element Set (TLE):
1 42620U 74089GM  19046.60983094 -.00000107  00000-0 -62822-3 0  9994
2 42620 101.1245 278.5070 0147164 111.3236 250.3601 12.22861265944648
Source of the keplerian elements: AFSPC